User: anonymous   Login
Location: Bijele Vode
(45.2833°N, 16.2000°E)
Time: 12:36:31
(UTC+00:00)
Language:

Ariane Rocket - Orbit

View from above orbital plane
View from above orbital plane
View from above satellite
View from above satellite

Ground track
Ground track

The orbit data is extracted from the following two-line orbital elements,

1 23561U 95021B   21163.11621847  .00000035  00000-0  26640-4 0  9997
2 23561  98.6744 212.8678 0005739 265.7310 148.6313 14.38029905370488
Epoch (UTC): 12 June 2021 02:47:21
Eccentricity: 0.0005739
inclination: 98.6744°
perigee height: 761 km
apogee height: 769 km
right ascension of ascending node: 212.8678°
argument of perigee: 265.7310°
revolutions per day: 14.38029905
mean anomaly at epoch: 148.6313°
orbit number at epoch: 37048

The dashed part of the orbit path shows where the satellite is in the earth's shadow,  

DLR